Location: Saratoga Springs
(43.0831°N, 73.7850°W)
Time: 12:48:19
(UTC-04:00)

Transit 4A - Pass Details

Date: 24 April 2024
Orbit: 871 x 971 km, 66.8° (Epoch: 20 May)

Event Time Altitude Azimuth Distance (km) Brightness Sun altitude
Rises 20:32:46 0° 333° (NNW) 3,468 11.9 -8.2°
Reaches altitude 10° 20:35:25 10° 341° (NNW) 2,528 10.9 -8.6°
Maximum altitude 20:40:52 40° 50° (NE) 1,274 8.5 -9.5°
Enters shadow 20:45:43 13° 117° (ESE) 2,326 9.3 -10.3°
